Wind_Speed
34 36 36 35 35 34 33 30 28 26 25 25 24 25 26 26 27 26 29 29 29 29 30 29 29 28 28 28 28 28 28 28 27 28 28 29 29 29 29 30 31 31 31
34 36 38 37 37 36 34 32 30 28 26 25 25 25 26 27 28 28 28 30 30 31 31 31 30 30 29 30 30 30 30 29 29 29 30 30 30 30 30 31 31 32 33
33 36 38 40 39 38 36 34 32 30 29 27 26 26 26 26 28 29 29 30 31 31 32 32 31 30 30 30 30 30 30 30 30 30 30 30 30 30 30 32 33 34 34
31 35 38 41 41 40 39 37 34 32 31 29 28 26 26 26 27 28 28 30 30 29 30 31 32 31 32 31 30 31 31 31 30 29 30 31 32 32 32 33 34 35 35
28 33 36 39 41 41 40 38 36 34 33 31 29 27 26 25 26 27 27 29 30 31 31 32 32 33 34 33 32 32 31 31 32 32 32 32 33 33 34 34 35 36 37
26 30 33 37 40 40 40 39 37 35 34 32 31 30 28 27 27 27 26 27 29 30 30 29 29 29 30 30 31 32 31 32 32 32 32 32 33 34 35 36 37 38 39
24 27 30 33 36 38 39 39 37 35 33 32 31 30 29 28 27 26 24 23 24 27 27 26 26 27 28 28 29 32 33 32 32 32 33 34 35 35 37 38 39 41 42
22 25 28 31 33 35 37 37 36 35 34 32 30 30 28 27 26 25 24 22 22 23 23 24 24 25 25 27 29 30 30 30 31 32 33 35 36 37 39 40 41 42 44
20 22 26 29 31 32 34 34 34 34 33 32 31 30 28 26 24 23 23 20 20 21 20 21 22 22 24 25 26 28 29 30 31 32 34 36 37 39 40 41 42 44 45
17 19 22 26 29 31 32 32 33 33 33 32 30 30 27 26 25 25 24 23 21 21 21 21 22 23 24 26 27 27 29 30 31 33 35 37 38 40 41 42 43 45 46
18 19 21 23 26 28 30 30 31 31 31 31 30 29 28 27 27 26 25 24 23 22 22 23 24 24 25 27 28 29 30 31 32 34 36 37 38 39 40 41 43 44 44
17 18 19 21 22 24 27 28 29 30 30 29 30 30 29 29 28 27 26 24 24 24 24 25 26 27 28 28 30 31 32 33 34 35 37 37 38 39 40 41 41 42 42
14 16 19 19 21 22 25 27 28 29 29 30 31 31 30 29 28 26 26 26 26 26 26 27 28 28 29 30 31 32 33 34 35 36 37 37 38 39 39 39 39 40 40
14 16 18 20 21 21 23 24 26 27 27 28 28 28 27 27 26 26 26 26 26 26 27 28 28 29 30 31 31 32 33 34 34 35 36 37 37 37 37 37 37 37 37
14 14 16 18 20 21 21 22 23 23 24 26 26 26 26 26 26 26 26 26 26 26 27 28 29 29 30 30 31 32 33 33 33 34 34 35 35 35 35 35 35 35 35
14 15 16 18 19 20 21 21 22 22 23 23 24 25 25 26 26 26 26 26 27 28 28 29 29 29 30 31 31 31 31 31 32 32 32 33 33 32 32 33 33 32 32
14 15 16 17 16 17 20 22 23 22 22 23 23 24 25 25 26 26 27 27 28 28 28 28 28 29 29 30 30 30 30 30 30 30 30 30 30 30 31 31 30 29 28
11 13 14 15 16 17 19 20 20 21 21 22 22 22 23 23 23 24 25 26 25 26 26 26 27 27 28 28 28 28 28 28 28 28 28 28 28 29 28 27 27 26 25
11 11 12 12 13 15 16 17 17 18 19 19 20 20 21 21 22 23 23 24 24 24 25 25 26 26 26 26 26 26 26 26 26 26 25 26 26 25 25 24 23 23 22
9 10 10 11 12 12 13 14 14 15 16 17 18 18 18 19 20 21 22 22 23 23 24 24 24 24 24 24 24 24 24 23 23 23 23 23 23 22 21 21 20 20 20
9 10 11 11 11 12 12 12 13 13 14 15 16 17 18 18 19 20 20 21 21 22 22 22 22 21 21 21 21 21 21 21 21 21 20 20 20 20 19 19 19 18 18
9 10 11 11 11 12 12 13 13 13 14 15 16 17 17 18 19 19 20 20 20 20 20 20 20 19 19 18 18 18 18 19 19 18 18 18 17 18 17 17 17 17 16
8 8 8 9 10 10 11 12 12 13 13 14 15 15 16 17 17 18 18 19 19 18 18 18 17 17 17 16 16 17 17 16 16 16 15 15 15 15 15 15 15 15 15
6 7 7 8 9 9 10 11 11 12 12 12 12 13 14 14 15 15 16 16 16 16 16 16 16 15 15 14 15 15 14 14 14 13 13 13 13 13 13 14 14 14 13
4 5 6 7 8 8 9 9 10 11 11 11 11 12 12 12 13 13 13 14 14 14 14 14 13 13 13 13 13 12 12 12 12 12 12 12 12 12 13 13 13 13 12
3 3 4 5 6 7 8 8 9 10 10 10 11 11 11 11 12 12 11 11 11 11 11 11 11 11 11 11 11 11 11 10 11 11 11 11 11 12 12 12 12 11 11
Wind_Direction
226 224 225 227 229 231 232 234 239 241 239 238 240 242 242 241 241 243 242 240 241 242 244 245 247 248 249 251 253 257 259 261 262 264 266 270 273 274 275 278 279 280 280
225 224 224 225 227 230 233 235 239 243 246 245 243 244 243 241 243 247 246 244 244 246 246 247 247 249 252 253 255 257 259 260 262 264 267 271 272 274 275 276 279 280 279
227 225 224 225 227 231 234 237 239 243 248 249 250 253 249 247 247 249 248 247 247 246 247 247 249 251 254 255 257 259 261 262 264 266 267 270 273 274 275 276 277 279 280
228 225 224 225 226 229 233 237 239 244 249 251 254 257 258 256 254 254 253 249 249 248 247 248 251 251 252 255 257 261 261 261 263 266 268 270 274 275 276 277 278 279 280
229 226 225 225 226 228 232 235 239 242 247 252 256 260 261 262 261 259 258 252 250 250 249 248 250 252 253 255 257 258 259 261 263 267 269 271 274 276 277 278 278 279 280
233 228 226 225 226 228 231 235 238 241 245 250 255 259 263 262 263 263 260 256 251 248 249 248 250 253 253 256 256 257 257 261 263 265 268 271 273 276 278 280 281 282 282
235 229 226 225 226 227 231 234 238 242 246 250 254 258 262 261 260 258 260 257 253 252 251 249 252 253 254 255 256 256 259 261 263 266 268 271 273 275 279 280 281 283 283
237 231 226 225 225 227 230 234 236 241 245 248 252 257 259 260 259 261 261 261 258 255 255 253 253 251 253 255 255 256 259 262 265 268 271 274 276 278 281 282 283 284 285
237 232 229 227 227 228 230 233 235 239 242 246 249 253 256 256 257 261 262 262 262 257 252 251 253 253 254 255 256 258 261 265 267 271 274 276 278 280 281 282 283 284 285
232 230 227 228 228 228 230 232 234 238 242 246 249 252 254 256 260 260 258 257 257 254 252 254 255 256 259 260 261 262 265 268 271 272 275 278 280 282 283 284 285 285 286
230 231 229 228 230 230 230 232 234 237 241 245 248 252 255 258 257 252 254 255 255 252 251 252 255 259 262 264 264 266 269 272 274 276 278 280 281 283 284 285 285 286 286
230 232 229 228 229 232 232 234 235 238 241 244 247 249 251 255 255 252 251 252 252 252 251 252 255 260 263 266 267 269 272 275 276 278 280 282 283 285 285 286 286 287 287
235 234 229 228 230 231 233 235 237 240 242 245 247 248 249 250 250 248 248 250 251 253 255 256 258 261 265 268 269 272 274 276 278 280 282 283 285 286 286 286 287 288 288
237 235 230 229 230 232 232 234 236 237 239 242 243 245 246 246 246 248 249 250 254 255 256 259 262 264 266 268 271 274 276 279 281 282 284 284 285 286 287 288 289 290 291
244 238 234 230 230 232 232 232 234 235 238 240 242 243 243 244 247 250 250 252 255 256 258 262 264 265 268 271 274 277 279 281 283 284 284 285 285 287 288 289 291 293 294
249 243 236 232 234 233 234 236 238 239 240 241 240 241 244 246 249 250 251 253 257 259 262 265 266 268 271 273 276 278 281 282 284 284 285 286 287 289 291 291 293 295 296
253 244 237 234 236 237 235 235 238 240 241 241 242 246 247 249 252 252 253 255 258 261 264 266 268 270 273 275 277 279 281 283 285 286 287 288 289 291 292 294 296 297 299
250 243 234 234 238 238 239 237 238 241 243 245 246 247 250 252 254 255 257 258 259 262 265 267 270 272 274 276 277 280 281 284 285 287 288 290 292 294 295 296 297 298 299
245 244 246 248 244 242 241 243 241 242 243 246 249 251 252 254 256 258 259 260 261 264 267 269 271 273 274 276 277 279 282 283 286 288 290 292 294 295 296 297 298 299 300
245 251 252 248 245 243 243 245 244 244 245 249 250 252 253 255 257 259 261 263 265 267 269 271 272 273 274 275 277 280 282 285 288 290 292 294 296 297 297 297 298 300 302
245 243 245 243 243 246 247 247 247 248 252 253 255 257 259 260 263 264 265 265 267 268 268 270 271 272 274 276 279 281 284 287 289 291 293 295 297 297 297 298 299 301 304
253 250 247 249 248 251 254 256 255 257 259 259 260 260 262 263 264 264 266 267 267 268 269 269 270 271 273 276 279 283 286 288 290 293 295 297 298 298 299 301 303 305 307
257 253 247 248 251 253 253 254 255 259 262 263 262 262 263 264 264 266 267 268 268 268 268 267 268 270 273 276 280 284 287 290 292 295 297 299 300 301 303 305 306 307 308
258 256 254 255 257 256 257 259 261 263 264 265 266 267 267 267 268 269 270 270 269 268 266 265 266 269 271 275 279 282 286 290 294 297 300 301 303 304 305 307 308 309 310
263 266 264 260 258 257 259 261 261 262 263 264 266 268 270 271 273 274 274 272 269 268 265 263 264 265 269 273 278 283 287 291 295 299 303 305 304 305 307 308 309 310 312
305 279 268 262 256 260 262 265 266 266 265 264 267 270 272 274 274 274 273 272 269 266 264 260 261 265 269 273 278 282 285 291 296 301 305 306 307 308 309 310 311 312 313
Height
5804 5808 5812 5815 5818 5821 5824 5826 5828 5828 5830 5833 5835 5837 5837 5839 5841 5841 5843 5844 5845 5847 5849 5850 5851 5852 5854 5855 5855 5856 5857 5857 5858 5858 5858 5857 5857 5856 5856 5854 5853 5852 5850
5797 5801 5805 5809 5812 5815 5818 5821 5822 5824 5826 5829 5830 5831 5832 5833 5835 5835 5837 5839 5840 5841 5842 5844 5845 5846 5848 5849 5849 5850 5851 5851 5852 5852 5852 5851 5851 5850 5849 5848 5846 5845 5843
5790 5794 5798 5802 5805 5809 5812 5814 5817 5820 5821 5823 5824 5824 5825 5827 5829 5830 5831 5833 5835 5835 5836 5837 5838 5840 5841 5842 5843 5844 5845 5845 5845 5845 5845 5845 5844 5843 5842 5841 5839 5838 5836
5783 5786 5790 5794 5798 5802 5805 5808 5811 5814 5816 5817 5819 5819 5820 5821 5823 5825 5826 5827 5827 5828 5829 5830 5832 5833 5834 5836 5836 5837 5838 5839 5839 5839 5838 5838 5837 5836 5835 5834 5832 5830 5828
5776 5779 5783 5787 5791 5795 5798 5802 5805 5808 5810 5811 5813 5814 5815 5816 5817 5818 5819 5820 5821 5822 5822 5824 5825 5826 5828 5829 5830 5831 5831 5832 5832 5832 5831 5830 5829 5828 5827 5826 5824 5822 5820
5770 5772 5776 5779 5783 5788 5792 5795 5798 5801 5803 5806 5807 5809 5810 5810 5811 5812 5813 5814 5814 5815 5816 5817 5818 5819 5821 5822 5823 5824 5824 5824 5824 5824 5824 5823 5822 5821 5819 5817 5816 5814 5811
5763 5766 5769 5773 5776 5780 5784 5788 5791 5794 5797 5799 5801 5803 5804 5804 5805 5806 5807 5808 5808 5809 5810 5811 5812 5813 5814 5815 5815 5816 5817 5817 5817 5816 5816 5815 5814 5812 5811 5809 5806 5804 5802
5758 5760 5763 5766 5770 5774 5777 5781 5784 5788 5791 5793 5795 5797 5798 5798 5799 5801 5802 5802 5803 5804 5805 5805 5806 5807 5808 5808 5808 5809 5809 5809 5809 5809 5808 5807 5805 5804 5802 5799 5797 5794 5791
5753 5755 5758 5761 5764 5767 5771 5775 5778 5781 5785 5787 5789 5791 5792 5794 5795 5795 5797 5798 5798 5799 5799 5800 5801 5801 5802 5802 5802 5802 5802 5802 5802 5801 5800 5798 5797 5794 5792 5790 5787 5784 5781
5748 5750 5752 5755 5758 5762 5765 5768 5771 5775 5778 5781 5783 5785 5786 5788 5789 5790 5791 5792 5793 5793 5794 5794 5795 5795 5796 5796 5795 5795 5795 5795 5794 5793 5791 5789 5787 5785 5782 5780 5777 5774 5770
5744 5746 5748 5751 5753 5756 5760 5763 5766 5768 5772 5774 5776 5778 5780 5781 5782 5783 5785 5786 5787 5787 5788 5789 5789 5789 5789 5789 5788 5788 5787 5786 5785 5784 5782 5780 5778 5775 5773 5770 5766 5763 5759
5739 5741 5743 5746 5748 5751 5754 5757 5760 5762 5765 5768 5770 5771 5773 5775 5776 5777 5779 5780 5781 5781 5782 5782 5783 5783 5782 5782 5781 5780 5779 5778 5777 5775 5773 5771 5768 5766 5763 5759 5756 5752 5749
5735 5737 5739 5741 5743 5746 5748 5751 5753 5756 5759 5761 5763 5765 5767 5768 5769 5771 5772 5773 5774 5775 5775 5776 5776 5776 5775 5774 5774 5773 5771 5770 5768 5766 5764 5761 5758 5756 5753 5749 5746 5742 5739
5731 5733 5734 5736 5739 5741 5743 5745 5747 5749 5752 5754 5756 5758 5760 5761 5762 5764 5765 5766 5767 5768 5768 5768 5768 5768 5767 5767 5765 5764 5763 5761 5759 5757 5754 5752 5749 5746 5743 5740 5736 5733 5729
5728 5729 5730 5732 5734 5736 5737 5740 5742 5744 5746 5748 5750 5751 5753 5754 5755 5757 5758 5759 5760 5760 5761 5761 5760 5760 5759 5758 5757 5756 5754 5752 5750 5748 5745 5742 5740 5737 5734 5731 5728 5724 5721
5724 5725 5726 5727 5729 5731 5733 5735 5736 5738 5740 5742 5743 5745 5746 5748 5749 5750 5751 5752 5752 5753 5753 5752 5752 5752 5751 5750 5749 5747 5745 5743 5741 5739 5736 5734 5731 5728 5725 5722 5719 5716 5713
5720 5721 5722 5723 5724 5726 5728 5729 5731 5733 5734 5736 5737 5739 5740 5741 5742 5743 5744 5744 5745 5745 5744 5744 5744 5743 5742 5741 5740 5739 5737 5735 5733 5731 5728 5725 5723 5720 5717 5714 5711 5709 5705
5717 5717 5718 5719 5721 5722 5723 5724 5726 5727 5729 5730 5731 5732 5734 5734 5735 5736 5736 5737 5737 5737 5737 5736 5736 5735 5734 5733 5732 5731 5729 5727 5725 5723 5720 5718 5715 5713 5710 5707 5705 5702 5699
5713 5714 5715 5716 5717 5717 5718 5719 5721 5722 5723 5724 5726 5726 5727 5728 5729 5729 5730 5730 5730 5730 5729 5729 5729 5728 5727 5726 5725 5724 5722 5720 5718 5716 5713 5711 5709 5706 5704 5701 5698 5696 5693
5711 5711 5712 5713 5713 5714 5714 5716 5717 5718 5719 5720 5721 5721 5722 5723 5723 5723 5723 5723 5723 5723 5723 5722 5722 5721 5720 5719 5718 5717 5716 5714 5712 5710 5707 5705 5703 5700 5698 5695 5693 5690 5688
5708 5708 5709 5709 5710 5711 5711 5712 5713 5714 5715 5715 5716 5716 5717 5717 5717 5717 5717 5717 5717 5717 5716 5716 5715 5715 5714 5713 5712 5711 5710 5708 5706 5704 5702 5700 5697 5695 5693 5690 5688 5685 5683
5705 5705 5706 5706 5707 5707 5708 5709 5709 5710 5710 5711 5711 5711 5712 5712 5712 5712 5711 5711 5711 5710 5710 5710 5709 5709 5708 5707 5706 5706 5704 5702 5701 5699 5697 5695 5692 5690 5688 5686 5683 5681 5679
5702 5702 5703 5703 5703 5704 5704 5705 5705 5706 5706 5706 5706 5706 5706 5706 5706 5706 5706 5705 5705 5704 5704 5704 5704 5703 5703 5702 5701 5701 5699 5698 5696 5694 5692 5690 5688 5686 5684 5681 5679 5677 5675
5700 5700 5700 5700 5700 5700 5701 5701 5701 5702 5702 5702 5702 5702 5702 5701 5701 5701 5700 5700 5699 5699 5699 5699 5699 5698 5698 5698 5697 5696 5695 5694 5692 5690 5688 5686 5684 5682 5680 5678 5676 5674 5672
5698 5698 5697 5697 5697 5697 5697 5698 5698 5698 5698 5698 5698 5698 5697 5697 5697 5696 5696 5695 5694 5694 5694 5694 5694 5694 5694 5694 5693 5692 5691 5690 5688 5686 5685 5683 5681 5679 5677 5675 5673 5671 5669
5696 5696 5695 5695 5695 5695 5695 5695 5695 5694 5694 5694 5694 5694 5694 5693 5692 5692 5691 5690 5690 5690 5690 5690 5691 5691 5691 5690 5690 5689 5688 5687 5685 5683 5682 5680 5678 5676 5674 5672 5670 5668 5666